Ana Sayfa
METAR-TAF:

METAR-TAF

Havaalanları :

Rutherford County Airport (Marchman Field)

Rutherfordton, Kuzey Carolina, Amerika Birleşik Devletleri

Enlem: 35-25-42N, Boylam: 081-56-06W, yükseklik: 329 m

Güncel hava durumu gözlemi

Rapor saat 05:15 UTC de 22 dakika önce yapıldı.
Rüzgar güney/güneybatıdan 5 kt
Sıcaklık 10°C
Nem 100%
Basınç 1015 hPa
Görüş mesafesi: 16.1 km
7000 ft yükseklikte parçalı çok bulutlu

METAR: KFQD 100515Z AUTO 20005KT 10SM BKN070 10/10 A2998 RMK AO2

Saat: 00:37 (05:37 UTC)


TAF: eksik

4.000'den fazla havaalanı için hava durumu gözlemleri ve tahminleri (METAR ve TAF raporları).

Kullanılabilir istasyonlar harita üzerinde sarı ve kırmızı noktalarla gösterilir.

İstasyonun adını görmek için fareyi noktanın üzerinde gezdirin.

Sonrasında hava gözlem ve tahminlerini görmek için tıklayın.

Haritayı değiştirmek için: yaklaştırmak için siyah artı işaretli yeşil düğmeye ve uzaklaştırmak için de eksi işaretli düğmeye hızla tıklayın; bitişik haritalar için yeşil okları kullanın.


METAR-TAF: